Weather History for Boothville, LA

Change the Weather History Date:

Friday, September 6, 2013

  Actual Average Record
Temperature  
Mean Temperature 84 °F -  
Max Temperature 88 °F - - ()
Min Temperature 80 °F - - ()
Cooling Degree Days 19    
Growing Degree Days 34 (Base 50)    
Moisture  
Dew Point 75 °F    
Average Humidity 75    
Maximum Humidity 85    
Minimum Humidity 61    
Precipitation  
Precipitation 0.00 in - - ()
Sea Level Pressure  
Sea Level Pressure 30.05 in    
Wind  
Wind Speed 4 mph (East)    
Max Wind Speed 9 mph    
Max Gust Speed -    
Visibility 10 miles    
Events      
T = Trace of Precipitation, MM = Missing Value Source: NWS Daily Summary

Daily Weather History Graph

Daily Weather History Graph

Search for Another Location

Airport:

Trip Planner

Search our weather history database for the weather conditions in past years. The results will help you decide how hot, cold, wet, or windy it might be!

Date:

Astronomy

Sep. 06, 2013 Rise Set
Actual Time 6:37 AM CDT 7:13 PM CDT
Civil Twilight 6:13 AM CDT 7:37 PM CDT
Nautical Twilight 5:45 AM CDT 8:05 PM CDT
Astronomical Twilight 5:16 AM CDT 8:34 PM CDT
Moon 7:40 AM CDT (9/6) 7:49 PM CDT (9/6)
Length of Visible Light 13h 23m
Length of Day
12h 35m
New Moon, 2% of the Moon is Illuminated
Sep 6
New Moon
Sep 12
First Quarter
Sep 19
Full
Sep 26
Last Quarter
Oct 4
New

Hourly Weather History & Observations

Time (CDT) Temp. Heat Index Dew Point Humidity Pressure Visibility Wind Dir Wind Speed Gust Speed Precip Events Conditions
12:51 AM 81.0 °F 87.3 °F 75.9 °F 85% 30.06 in 10.0 mi ESE 3.5 mph - N/A   Clear
1:51 AM 82.0 °F 89.4 °F 75.9 °F 82% 30.05 in 10.0 mi East 4.6 mph - N/A   Clear
2:51 AM 81.0 °F 87.3 °F 75.9 °F 85% 30.04 in 10.0 mi Calm Calm - N/A   Clear
3:51 AM 81.0 °F 86.7 °F 75.0 °F 82% 30.04 in 10.0 mi Calm Calm - N/A   Clear
4:51 AM 80.1 °F 85.1 °F 75.0 °F 85% 30.04 in 10.0 mi Calm Calm - N/A   Clear
5:51 AM 81.0 °F 87.3 °F 75.9 °F 85% 30.06 in 10.0 mi Calm Calm - N/A   Partly Cloudy
6:51 AM 81.0 °F 87.3 °F 75.9 °F 85% 30.07 in 10.0 mi Calm Calm - N/A   Partly Cloudy
7:51 AM 82.0 °F 89.4 °F 75.9 °F 82% 30.08 in 10.0 mi Calm Calm - N/A   Clear
7:59 AM 82.4 °F 89.5 °F 75.2 °F 79% 30.08 in 10.0 mi East 3.5 mph - N/A   Partly Cloudy
8:51 AM 84.0 °F 91.9 °F 75.0 °F 74% 30.09 in 10.0 mi East 5.8 mph - N/A   Clear
9:51 AM 84.9 °F 92.1 °F 73.9 °F 69% 30.09 in 10.0 mi ENE 9.2 mph - N/A   Scattered Clouds
10:51 AM 87.1 °F 96.3 °F 75.0 °F 67% 30.10 in 10.0 mi ENE 8.1 mph - N/A   Clear
11:51 AM 87.1 °F 95.4 °F 73.9 °F 65% 30.10 in 10.0 mi ENE 6.9 mph - N/A   Clear
12:51 PM 84.9 °F 91.4 °F 73.0 °F 67% 30.08 in 10.0 mi ENE 8.1 mph - N/A   Clear
1:51 PM 86.0 °F 93.0 °F 73.0 °F 65% 30.06 in 10.0 mi East 8.1 mph - N/A   Partly Cloudy
2:51 PM 88.0 °F 95.6 °F 73.0 °F 61% 30.04 in 10.0 mi ENE 6.9 mph - N/A   Clear
3:51 PM 87.1 °F 94.5 °F 73.0 °F 63% 30.01 in 10.0 mi ENE 6.9 mph - N/A   Clear
4:51 PM 86.0 °F 95.1 °F 75.0 °F 70% 30.01 in 10.0 mi ENE 6.9 mph - N/A   Partly Cloudy
5:51 PM 86.0 °F 93.8 °F 73.9 °F 67% 30.00 in 10.0 mi East 4.6 mph - N/A   Clear
6:51 PM 84.9 °F 92.1 °F 73.9 °F 69% 30.01 in 10.0 mi East 5.8 mph - N/A   Clear
7:51 PM 82.9 °F 90.2 °F 75.0 °F 77% 30.01 in 10.0 mi East 3.5 mph - N/A   Clear
8:51 PM 82.0 °F 88.6 °F 75.0 °F 79% 30.01 in 10.0 mi ESE 3.5 mph - N/A   Clear
9:51 PM 82.9 °F 90.2 °F 75.0 °F 77% 30.02 in 10.0 mi East 3.5 mph - N/A   Clear
10:51 PM 82.0 °F 89.4 °F 75.9 °F 82% 30.03 in 10.0 mi East 3.5 mph - N/A   Clear
11:51 PM 82.0 °F 89.4 °F 75.9 °F 82% 30.01 in 10.0 mi Calm Calm - N/A   Clear